| time (UTC) | temp F | wind direction | speed knots | gust knots | rain 1hr in | rain 24hr in | rain mn in | humidity % | barometer mb |
| 20260504191952 | 67 | 138 | 2.6 | 8.7 | 0.00 | 0.00 | 0.00 | 45 | 1010.6 |
| 20260504191830 | 67 | 138 | 2.6 | 8.7 | 0.00 | 0.00 | 0.00 | 45 | 1010.6 |
| 20260504190404 | 67 | 143 | 3.5 | 8.7 | 0.00 | 0.00 | 0.00 | 45 | 1010.6 |
| 20260504184950 | 67 | 139 | 2.6 | 9.6 | 0.00 | 0.00 | 0.00 | 48 | 1010.8 |
| 20260504184837 | 67 | 139 | 2.6 | 9.6 | 0.00 | 0.00 | 0.00 | 48 | 1010.8 |
| 20260504183425 | 68 | 136 | 2.6 | 10.4 | 0.00 | 0.00 | 0.00 | 45 | 1010.8 |
| 20260504181943 | 68 | 142 | 3.5 | 10.4 | 0.00 | 0.00 | 0.00 | 42 | 1010.8 |
| 20260504181837 | 68 | 142 | 3.5 | 10.4 | 0.00 | 0.00 | 0.00 | 42 | 1010.8 |
| 20260504180453 | 68 | 141 | 1.7 | 7.8 | 0.00 | 0.00 | 0.00 | 46 | 1011.0 |
| 20260504180323 | 68 | 141 | 1.7 | 7.8 | 0.00 | 0.00 | 0.00 | 46 | 1011.0 |
| 20260504174858 | 67 | 143 | 3.5 | 9.6 | 0.00 | 0.00 | 0.00 | 42 | 1011.1 |
| 20260504173531 | 66 | 143 | 2.6 | 12.2 | 0.00 | 0.00 | 0.00 | 42 | 1011.3 |
| 20260504173416 | 66 | 143 | 2.6 | 12.2 | 0.00 | 0.00 | 0.00 | 42 | 1011.3 |
| 20260504171913 | 65 | 139 | 3.5 | 7.0 | 0.00 | 0.00 | 0.00 | 43 | 1011.5 |
| 20260504170437 | 65 | 136 | 4.3 | 13.0 | 0.00 | 0.00 | 0.00 | 43 | 1011.7 |
| 20260504160350 | 65 | 136 | 2.6 | 7.8 | 0.00 | 0.00 | 0.00 | 43 | 1012.3 |
| 20260504150448 | 63 | 138 | 2.6 | 7.0 | 0.00 | 0.00 | 0.00 | 43 | 1013.0 |
| 20260504140517 | 61 | 137 | 1.7 | 7.0 | 0.00 | 0.00 | 0.00 | 47 | 1013.2 |
| 20260504140410 | 61 | 137 | 1.7 | 7.0 | 0.00 | 0.00 | 0.00 | 47 | 1013.2 |
| 20260504130418 | 57 | 132 | 2.6 | 7.8 | 0.00 | 0.00 | 0.00 | 54 | 1013.8 |
| 20260504110438 | 48 | 132 | 0.0 | 2.6 | 0.00 | 0.00 | 0.00 | 62 | 1014.1 |
| 20260504100437 | 45 | 132 | 0.0 | 0.9 | 0.00 | 0.00 | 0.00 | 63 | 1013.9 |
| 20260504081919 | 47 | 0 | 0.0 | 2.6 | 0.00 | 0.00 | 0.00 | 59 | 1013.3 |
| 20260504080534 | 47 | 0 | 0.0 | 0.9 | 0.00 | 0.00 | 0.00 | 60 | 1013.2 |
| 20260504080403 | 47 | 0 | 0.0 | 0.9 | 0.00 | 0.00 | 0.00 | 60 | 1013.2 |
| 20260504070330 | 47 | 0 | 0.0 | 0.9 | 0.00 | 0.00 | 0.00 | 58 | 1012.8 |
| 20260504050457 | 46 | 0 | 0.0 | 0.9 | 0.00 | 0.00 | 0.00 | 60 | 1012.6 |
| 20260504050323 | 46 | 0 | 0.0 | 0.9 | 0.00 | 0.00 | 0.00 | 60 | 1012.6 |
| 20260504045021 | 46 | 0 | 0.0 | 0.0 | 0.00 | 0.00 | 0.00 | 59 | 1012.7 |
| 20260504044837 | 46 | 0 | 0.0 | 0.0 | 0.00 | 0.00 | 0.00 | 59 | 1012.7 |
| 20260504043534 | 45 | 132 | 0.0 | 0.0 | 0.00 | 0.00 | 0.00 | 59 | 1012.5 |
| 20260504043345 | 45 | 132 | 0.0 | 0.0 | 0.00 | 0.00 | 0.00 | 59 | 1012.5 |
| 20260504041900 | 45 | 0 | 0.0 | 0.0 | 0.00 | 0.00 | 0.00 | 58 | 1012.4 |
| 20260504040433 | 45 | 132 | 0.0 | 0.9 | 0.00 | 0.00 | 0.00 | 59 | 1012.4 |
| 20260504040323 | 45 | 132 | 0.0 | 0.9 | 0.00 | 0.00 | 0.00 | 59 | 1012.4 |
| 20260504034925 | 44 | 0 | 0.0 | 0.0 | 0.00 | 0.00 | 0.00 | 60 | 1012.3 |
| 20260504033441 | 45 | 0 | 0.0 | 0.9 | 0.00 | 0.00 | 0.00 | 62 | 1012.2 |
| 20260504032017 | 45 | 0 | 0.0 | 0.0 | 0.00 | 0.00 | 0.00 | 60 | 1012.3 |
| 20260504031853 | 45 | 0 | 0.0 | 0.0 | 0.00 | 0.00 | 0.00 | 60 | 1012.3 |
| 20260504030436 | 45 | 0 | 0.0 | 0.9 | 0.00 | 0.00 | 0.00 | 60 | 1012.3 |
| 20260504025032 | 46 | 0 | 0.0 | 0.0 | 0.00 | 0.00 | 0.00 | 59 | 1012.2 |
| 20260504024837 | 46 | 0 | 0.0 | 0.0 | 0.00 | 0.00 | 0.00 | 59 | 1012.2 |
| 20260504023444 | 46 | 0 | 0.0 | 0.0 | 0.00 | 0.00 | 0.00 | 58 | 1012.4 |
| 20260504022013 | 46 | 0 | 0.0 | 0.0 | 0.00 | 0.00 | 0.00 | 56 | 1012.4 |
| 20260504021849 | 46 | 0 | 0.0 | 0.0 | 0.00 | 0.00 | 0.00 | 56 | 1012.4 |
| 20260504020520 | 46 | 0 | 0.0 | 0.0 | 0.00 | 0.00 | 0.00 | 57 | 1012.2 |
| 20260504020355 | 46 | 0 | 0.0 | 0.0 | 0.00 | 0.00 | 0.00 | 57 | 1012.2 |
| 20260504015024 | 46 | 0 | 0.0 | 0.0 | 0.00 | 0.00 | 0.00 | 57 | 1012.1 |
| 20260504014845 | 46 | 0 | 0.0 | 0.0 | 0.00 | 0.00 | 0.00 | 57 | 1012.1 |
| 20260504013505 | 47 | 0 | 0.0 | 0.0 | 0.00 | 0.00 | 0.00 | 56 | 1012.0 |
| 20260504012004 | 49 | 0 | 0.0 | 0.0 | 0.00 | 0.00 | 0.00 | 53 | 1011.8 |
| 20260504011849 | 49 | 0 | 0.0 | 0.0 | 0.00 | 0.00 | 0.00 | 53 | 1011.8 |
| 20260504010447 | 49 | 0 | 0.0 | 0.0 | 0.00 | 0.00 | 0.00 | 47 | 1011.7 |
| 20260504010316 | 49 | 0 | 0.0 | 0.0 | 0.00 | 0.00 | 0.00 | 47 | 1011.7 |
| 20260504004905 | 50 | 0 | 0.0 | 0.0 | 0.00 | 0.00 | 0.00 | 44 | 1011.5 |
| 20260504003442 | 52 | 0 | 0.0 | 0.0 | 0.00 | 0.00 | 0.00 | 42 | 1011.1 |
| 20260504003339 | 52 | 0 | 0.0 | 0.0 | 0.00 | 0.00 | 0.00 | 42 | 1011.1 |
| 20260504001932 | 53 | 0 | 0.0 | 0.9 | 0.00 | 0.00 | 0.00 | 39 | 1010.8 |
| 20260504000542 | 54 | 0 | 0.0 | 0.9 | 0.00 | 0.00 | 0.00 | 36 | 1010.6 |
| 20260504000416 | 54 | 0 | 0.0 | 0.9 | 0.00 | 0.00 | 0.00 | 36 | 1010.6 |
| 20260503234921 | 55 | 132 | 0.0 | 1.7 | 0.00 | 0.00 | 0.00 | 35 | 1010.4 |
| 20260503233521 | 55 | 132 | 0.9 | 2.6 | 0.00 | 0.00 | 0.00 | 34 | 1010.3 |
| 20260503233357 | 55 | 132 | 0.9 | 2.6 | 0.00 | 0.00 | 0.00 | 34 | 1010.3 |
| 20260503232014 | 56 | 0 | 0.0 | 2.6 | 0.00 | 0.00 | 0.00 | 33 | 1010.3 |
| 20260503231843 | 56 | 0 | 0.0 | 2.6 | 0.00 | 0.00 | 0.00 | 33 | 1010.3 |
| 20260503230420 | 56 | 132 | 1.7 | 9.6 | 0.00 | 0.00 | 0.00 | 31 | 1010.2 |
| 20260503224940 | 57 | 132 | 0.9 | 4.3 | 0.00 | 0.00 | 0.00 | 32 | 1010.1 |
| 20260503223357 | 57 | 132 | 1.7 | 5.2 | 0.00 | 0.00 | 0.00 | 30 | 1010.1 |
| 20260503222017 | 57 | 131 | 2.6 | 7.0 | 0.00 | 0.00 | 0.00 | 30 | 1010.0 |
| 20260503221909 | 57 | 131 | 2.6 | 7.0 | 0.00 | 0.00 | 0.00 | 30 | 1010.0 |
| 20260503220415 | 57 | 131 | 1.7 | 6.1 | 0.00 | 0.00 | 0.00 | 31 | 1010.0 |
| 20260503215013 | 57 | 131 | 2.6 | 9.6 | 0.00 | 0.00 | 0.00 | 29 | 1010.1 |
| 20260503214855 | 57 | 131 | 2.6 | 9.6 | 0.00 | 0.00 | 0.00 | 29 | 1010.1 |
| 20260503213440 | 57 | 131 | 1.7 | 7.8 | 0.00 | 0.00 | 0.00 | 31 | 1009.8 |
| 20260503211955 | 58 | 131 | 1.7 | 7.8 | 0.00 | 0.00 | 0.00 | 32 | 1009.7 |
| 20260503210501 | 57 | 131 | 1.7 | 6.1 | 0.00 | 0.00 | 0.00 | 31 | 1009.6 |
| 20260503205031 | 57 | 131 | 2.6 | 6.1 | 0.00 | 0.00 | 0.00 | 33 | 1009.8 |
| 20260503204836 | 57 | 131 | 2.6 | 6.1 | 0.00 | 0.00 | 0.00 | 33 | 1009.8 |
| 20260503203534 | 57 | 131 | 2.6 | 12.2 | 0.00 | 0.00 | 0.00 | 34 | 1009.9 |
| 20260503203413 | 57 | 131 | 2.6 | 12.2 | 0.00 | 0.00 | 0.00 | 34 | 1009.9 |
| 20260503201921 | 57 | 129 | 2.6 | 9.6 | 0.00 | 0.00 | 0.00 | 34 | 1009.9 |
| 20260503200432 | 57 | 129 | 1.7 | 7.8 | 0.00 | 0.00 | 0.00 | 36 | 1009.9 |
| 20260503195001 | 56 | 129 | 2.6 | 10.4 | 0.00 | 0.00 | 0.00 | 39 | 1010.0 |
| 20260503194835 | 56 | 129 | 2.6 | 10.4 | 0.00 | 0.00 | 0.00 | 39 | 1010.0 |
| 20260503193525 | 56 | 129 | 3.5 | 6.1 | 0.00 | 0.00 | 0.00 | 38 | 1010.1 |
| 20260503193339 | 56 | 129 | 3.5 | 6.1 | 0.00 | 0.00 | 0.00 | 38 | 1010.1 |